Flight Track Log - Related Links

Times and Time Zones

All times are in EDT time to prevent confusion due to time zone crossing. See the SKW7367 flight status page for this flight to view local times or setup timezone preferences in your user account.

Time Position Orientation Groundspeed Altitude Reporting Facility
EDT Latitude Longitude Course Direction KTS MPH feet Rate Location/Type
04:13PM 42.2194 -83.3578 North 149 171 1,300  Level Cleveland Center
04:14PM 42.2539 -83.3456 15° North 208 239 3,100 2,707 Climbing Cleveland Center
04:15PM 42.2875 -83.3328 16° North 215 247 5,000 3,541 Climbing Cleveland Center
04:15PM 42.3142 -83.3258 11° North 235 270 6,700 3,387 Climbing Cleveland Center
04:16PM 42.3492 -83.3328 352° North 232 267 8,500 3,344 Climbing Cleveland Center
04:16PM 42.3775 -83.3461 341° North 240 276 10,100 3,097 Climbing Cleveland Center
04:17PM 42.5602 -83.3500 North  Level FlightAware Approximate
04:17PM 42.4147 -83.3586 346° North 240 276 11,700  Level Cleveland Center
04:17PM 42.4478 -83.3589 360° North 271 312 12,600 1,161 Climbing Cleveland Center
04:18PM 42.6502 -83.3500 North  Level FlightAware Approximate
04:18PM 42.4894 -83.3608 358° North 270 311 12,900  Level Cleveland Center
04:19PM 42.7403 -83.3500 North  Level FlightAware Approximate
04:19PM 42.5811 -83.3628 359° North 278 320 13,500  Level Cleveland Center
04:20PM 42.6636 -83.3628 360° North 293 337 15,000 726 Climbing Cleveland Center
04:21PM 42.7483 -83.3636 360° North 304 350 15,000  Level Cleveland Center
04:22PM 42.8278 -83.3656 359° North 290 334 15,000  Level Cleveland Center
04:23PM 42.9083 -83.3667 359° North 290 334 15,000  Level Cleveland Center
04:24PM 43.0069 -83.3667 360° North 292 336 15,000  Level Cleveland Center
04:25PM 43.0861 -83.3850 350° North 299 344 15,000  Level Cleveland Center
04:26PM 43.1394 -83.4611 314° West 276 318 15,000  Level Cleveland Center
04:27PM 43.2222 -83.4775 352° North 312 359 15,000  Level Cleveland Center
04:28PM 43.3089 -83.4811 358° North 312 359 15,000  Level Cleveland Center
04:29PM 43.3964 -83.4842 359° North 313 360 15,000  Level Cleveland Center
04:30PM 43.5036 -83.4900 358° North 320 368 15,000  Level Cleveland Center
04:31PM 43.5925 -83.4942 358° North 320 368 15,000  Level Cleveland Center
04:32PM 43.6808 -83.4961 359° North 320 368 15,000  Level Cleveland Center
04:33PM 43.7703 -83.5017 357° North 320 368 15,000  Level Cleveland Center
04:34PM 43.8592 -83.5053 358° North 320 368 15,000  Level Cleveland Center
04:35PM 43.9475 -83.5092 358° North 320 368 15,000  Level Cleveland Center
04:36PM 44.0536 -83.5133 358° North 320 368 15,000  Level Cleveland Center
04:37PM 44.1444 -83.5175 358° North 320 368 15,000  Level Cleveland Center
04:38PM 44.2361 -83.5236 357° North 326 375 15,000 -774 Level Cleveland Center
04:40PM 44.3400 -83.5264 359° North 335 386 13,400 -1,669 Descending Cleveland Center
04:41PM 44.4406 -83.5311 358° North 306 352 11,300 -1,669 Descending Minneapolis Center
04:42PM 44.5169 -83.5344 358° North 280 322 9,700 -1,839 Descending Minneapolis Center
04:43PM 44.5900 -83.5375 358° North 250 288 7,500 -2,081 Descending Minneapolis Center
04:44PM 44.6575 -83.5403 358° North 248 285 5,400 -1,694 Descending Minneapolis Center
04:45PM 44.7281 -83.5433 358° North 241 277 4,000 -823 Descending Minneapolis Center
04:46PM 44.7919 -83.5461 358° North 237 273 3,700 -339 Descending Minneapolis Center
04:47PM 44.8586 -83.5492 358° North 229 264 3,300 -195 Descending Minneapolis Center
04:48PM 44.9169 -83.5561 355° North 219 252 3,300 -195 Level Minneapolis Center
04:49PM 44.9669 -83.5600 357° North 168 193 2,900 -532 Descending Minneapolis Center
04:50PM 45.0019 -83.5608 359° North 135 155 2,200 -726 Descending Minneapolis Center
04:51PM 45.0383 -83.5611 360° North 128 147 1,400 -726 Descending Minneapolis Center
04:52PM 45.0703 -83.5611 360° North 128 147 700 -677 Descending Minneapolis Center

Login

Don't have an account? Register now (free) for customized features, flight alerts, and more!